Location: Ferma
(41.9500°N, 44.5167°E)
Time: 04:23:08
(UTC+00:00)

NOSS 2-3 (D) - Pass Details

Date: 07 June 2022
Orbit: 536 x 1674 km, 63.3° (Epoch: 02 June)

Event Time Altitude Azimuth Distance (km) Brightness Sun altitude
Rises 19:03:55 0° 313° (NW) 3,680 8.9 -19.8°
Reaches altitude 10° 19:06:33 10° 303° (WNW) 2,894 7.9 -20.1°
Maximum altitude 19:12:31 31° 245° (WSW) 2,062 6.2 -20.6°
Enters shadow 19:17:23 18° 199° (SSW) 2,898 6.5 -21.0°
